Location: Beddau
(51.5575°N, 3.3561°W)
Time: 02:37:47
(UTC+00:00)

Cosmos 1666 Rocket - Pass Details

Date: 03 March 2021
Orbit: 605 x 632 km, 82.5° (Epoch: 13 April)

Event Time Altitude Azimuth Distance (km) Brightness Sun altitude
Rises 18:58:44 0° 196° (SSW) 2,859 7.1 -10.3°
Reaches altitude 10° 19:00:57 10° 199° (SSW) 1,956 6.3 -10.6°
Maximum altitude 19:05:15 68° 282° (WNW) 658 3.9 -11.3°
Drops below altitude 10° 19:09:35 10° 6° (N) 1,967 6.1 -12.0°
Sets 19:11:50 0° 9° (N) 2,875 6.9 -12.3°
